TimeEST,TemperatureF,Dew PointF,Humidity,Sea Level PressureIn,VisibilityMPH,Wind Direction,Wind SpeedMPH,Gust SpeedMPH,PrecipitationIn,Events,Conditions,WindDirDegrees,DateUTC
12:53 AM,-9.9,-17.0,71,30.44,10.0,Variable,3.5,-,N/A,,Clear,0,2014-03-07 05:53:00
1:53 AM,-9.9,-16.1,74,30.43,10.0,Calm,Calm,-,N/A,,Clear,0,2014-03-07 06:53:00
2:53 AM,-7.1,-17.0,62,30.42,10.0,South,6.9,-,N/A,,Clear,180,2014-03-07 07:53:00
3:53 AM,-2.9,-16.1,54,30.39,10.0,SW,5.8,-,N/A,,Clear,230,2014-03-07 08:53:00
4:53 AM,-9.9,-17.0,71,30.37,10.0,SSW,3.5,-,N/A,,Clear,200,2014-03-07 09:53:00
5:53 AM,-11.9,-18.9,71,30.36,10.0,SW,4.6,-,N/A,,Clear,230,2014-03-07 10:53:00
6:53 AM,-7.1,-16.1,65,30.35,10.0,Calm,Calm,-,N/A,,Clear,0,2014-03-07 11:53:00
7:53 AM,12.9,-9.9,35,30.34,10.0,SW,8.1,-,N/A,,Clear,220,2014-03-07 12:53:00
8:53 AM,19.9,-8.0,29,30.31,10.0,SSW,8.1,-,N/A,,Clear,210,2014-03-07 13:53:00
9:53 AM,27.0,-11.0,19,30.28,10.0,SW,11.5,19.6,N/A,,Clear,220,2014-03-07 14:53:00
10:53 AM,30.0,-11.0,17,30.24,10.0,SW,20.7,25.3,N/A,,Clear,220,2014-03-07 15:53:00
11:53 AM,32.0,-9.9,16,30.22,10.0,SW,23.0,31.1,N/A,,Clear,220,2014-03-07 16:53:00
12:53 PM,34.0,-6.0,18,30.15,10.0,SSW,15.0,26.5,N/A,,Clear,200,2014-03-07 17:53:00
1:53 PM,36.0,-2.9,19,30.13,10.0,SSW,18.4,26.5,N/A,,Clear,210,2014-03-07 18:53:00
2:53 PM,37.0,5.0,26,30.09,10.0,SSW,15.0,27.6,N/A,,Clear,200,2014-03-07 19:53:00
3:53 PM,37.0,7.0,29,30.06,10.0,SSW,10.4,20.7,N/A,,Clear,210,2014-03-07 20:53:00
4:53 PM,35.1,9.0,34,30.04,10.0,SW,11.5,-,N/A,,Clear,220,2014-03-07 21:53:00
5:53 PM,33.1,9.0,37,30.03,10.0,SSW,5.8,-,N/A,,Clear,200,2014-03-07 22:53:00
6:53 PM,30.9,10.9,43,30.02,10.0,SSW,6.9,-,N/A,,Clear,210,2014-03-07 23:53:00
7:53 PM,28.9,12.0,49,30.00,10.0,South,9.2,-,N/A,,Clear,190,2014-03-08 00:53:00
8:53 PM,28.0,15.1,58,29.99,10.0,South,10.4,19.6,N/A,,Clear,190,2014-03-08 01:53:00
9:53 PM,27.0,17.1,66,29.97,10.0,SSW,9.2,17.3,N/A,,Clear,200,2014-03-08 02:53:00
10:53 PM,26.1,18.0,71,29.94,10.0,SSW,8.1,-,N/A,,Clear,200,2014-03-08 03:53:00
11:53 PM,24.1,18.0,77,29.91,10.0,South,5.8,-,N/A,,Clear,180,2014-03-08 04:53:00